Flag for Sao Tome and Principe Weather past 2 weeks in São Tomé, Sao Tome and Principe

Now
75 °F

Broken clouds.


Feels Like: 75 °F
Forecast: N/A
Wind: 17 mph from South

Location: S. Tome

Current Time: Jul 3, 2015 at 5:24:09 PM

Latest Report: Jul 3, 2015 at 4:00 PM


Visibility: N/A

Pressure: 29.95 "Hg

Humidity: 83%

Dew point: 70 °F

Location of São ToméLocation

Historic Weather in São Tomé — Graph

°F

São Tomé temperature yesterday

Maximum temperature yesterday: 77 °F (at 9:00 AM)
Minimum temperature yesterday: 73 °F (at 6:00 AM)
Average temperature yesterday: 75 °F

Past Weeks' High & Low Weather Summary

 TemperatureHumidityPressure
High82 °F (Jun 24, 10:00 AM)94% (Jun 23, 6:00 AM)30.12 "Hg (Jun 23, 6:00 AM)
Low72 °F (Jun 19, 12:00 AM)62% (Jun 22, 9:00 AM)29.92 "Hg (Jun 19, 4:00 AM)
Average76 °F83%30.02 "Hg
* Reported Midnight between Jun 18 and Jun 19 — Jul 3 4:00 PM, São Tomé, Weather by CustomWeather, © 2015

Note: Actual official high and low records may vary slightly from our data, if they occured in-between our weather recording intervals... More about our weather records

Advertising

São Tomé weather history for previous 24 hours

 ConditionsComfort  
Time TempWeatherWind HumidityBarometerVisibility
4:00 PM
Fri, Jul 3
75 °FBroken clouds.17 mph83%29.95 "HgN/A
3:00 PM75 °FBroken clouds.18 mph83%29.95 "HgN/A
12:00 PM77 °FPartly sunny.14 mph83%30.01 "HgN/A
11:00 AM75 °FPartly sunny.12 mph89%30.01 "HgN/A
10:00 AM75 °FPartly sunny.14 mph89%30.01 "HgN/A
9:00 AM75 °FPartly sunny.16 mph83%30.04 "HgN/A
8:00 AM75 °FPartly sunny.16 mph89%30.01 "HgN/A
7:00 AM73 °FPartly sunny.14 mph89%29.98 "HgN/A
6:00 AM73 °FPartly sunny.12 mph94%29.98 "HgN/A
5:00 AM73 °FPassing clouds.9 mph89%29.98 "HgN/A
4:00 AM73 °FPassing clouds.9 mph89%29.95 "HgN/A
1:00 AM73 °FPassing clouds.10 mph89%29.98 "HgN/A
12:00 AM73 °FPassing clouds.8 mph83%30.01 "HgN/A
11:00 PM
Thu, Jul 2
75 °FPassing clouds.9 mph83%30.01 "HgN/A
8:00 PM75 °FPassing clouds.5 mph83%29.98 "HgN/A
7:00 PM73 °FPassing clouds.10 mph89%29.95 "HgN/A
6:00 PM73 °FPassing clouds.10 mph89%29.95 "HgN/A
5:00 PM73 °FPartly sunny.8 mph89%29.95 "HgN/A
Weather by CustomWeather, © 2015

See weather overviewHow to use our weather pages